owner,sensor,date,latitude,longitude,vertical_datum,direction_of_sea_water_velocity,sea_water_speed,upward_sea_water_velocity,qcFlag 
TABS,ioos:station:TABS:A:1,1995-07-01T00:00:00Z,29.5325,-93.8116,2.0,344.0730006,8.672946443,-99999.0,'11133222,11111222,99999999' 
TABS,ioos:station:TABS:A:1,1995-07-01T00:30:00Z,29.5325,-93.8116,2.0,56.31001126,5.3722714,-99999.0,'11133222,11111222,99999999' 
TABS,ioos:station:TABS:A:1,1995-07-01T01:00:00Z,29.5325,-93.8116,2.0,55.29722968,4.707366567,-99999.0,'11133222,11111222,99999999' 
TABS,ioos:station:TABS:A:1,1995-07-01T01:30:00Z,29.5325,-93.8116,2.0,26.56519952,6.663482573,-99999.0,'11133222,11111222,99999999' 
TABS,ioos:station:TABS:A:1,1995-07-01T02:00:00Z,29.5325,-93.8116,2.0,28.28326248,8.800647703,-99999.0,'11133222,11111222,99999999' 
TABS,ioos:station:TABS:A:1,1995-07-01T02:30:00Z,29.5325,-93.8116,2.0,55.63788443,6.856566196,-99999.0,'11133222,11111222,99999999' 
TABS,ioos:station:TABS:A:1,1995-07-01T03:00:00Z,29.5325,-93.8116,2.0,72.65285558,4.997299271,-99999.0,'11133222,11111222,99999999' 
TABS,ioos:station:TABS:A:1,1995-07-01T03:30:00Z,29.5325,-93.8116,2.0,85.73739885,8.07232928,-99999.0,'11133222,11111222,99999999' 
TABS,ioos:station:TABS:A:1,1995-07-01T04:00:00Z,29.5325,-93.8116,2.0,63.43501094,10.66604425,-99999.0,'11111222,11111222,99999999' 
TABS,ioos:station:TABS:A:1,1995-07-01T04:30:00Z,29.5325,-93.8116,2.0,90.0,6.56,-99999.0,'11133222,11111222,99999999' 
TABS,ioos:station:TABS:A:1,1995-07-01T05:00:00Z,29.5325,-93.8116,2.0,103.0958096,13.15205307,-99999.0,'11111222,11111222,99999999' 
TABS,ioos:station:TABS:A:1,1995-07-01T05:30:00Z,29.5325,-93.8116,2.0,90.0,7.75,-99999.0,'11133222,11111222,99999999' 
TABS,ioos:station:TABS:A:1,1995-07-01T06:00:00Z,29.5325,-93.8116,2.0,117.5927521,7.729094384,-99999.0,'11133222,11111222,99999999' 
TABS,ioos:station:TABS:A:1,1995-07-01T06:30:00Z,29.5325,-93.8116,2.0,123.668862,7.521735172,-99999.0,'11133222,11111222,99999999' 
TABS,ioos:station:TABS:A:1,1995-07-01T07:00:00Z,29.5325,-93.8116,2.0,163.3711672,3.110064308,-99999.0,'11133222,11111222,99999999' 
TABS,ioos:station:TABS:A:1,1995-07-01T07:30:00Z,29.5325,-93.8116,2.0,106.3772646,5.284411036,-99999.0,'11133222,11111222,99999999' 
TABS,ioos:station:TABS:A:1,1995-07-01T08:00:00Z,29.5325,-93.8116,2.0,155.1777817,4.263918386,-99999.0,'11133222,11111222,99999999' 
TABS,ioos:station:TABS:A:1,1995-07-01T08:30:00Z,29.5325,-93.8116,2.0,218.1872549,10.61080581,-99999.0,'11111222,11111222,99999999' 
TABS,ioos:station:TABS:A:1,1995-07-01T09:00:00Z,29.5325,-93.8116,2.0,224.9996843,15.59877559,-99999.0,'11111222,11111222,99999999' 
TABS,ioos:station:TABS:A:1,1995-07-01T09:30:00Z,29.5325,-93.8116,2.0,237.5284627,19.42722317,-99999.0,'11111222,11111222,99999999' 
TABS,ioos:station:TABS:A:1,1995-07-01T10:00:00Z,29.5325,-93.8116,2.0,222.0356202,24.47742838,-99999.0,'11111222,11111222,99999999' 
TABS,ioos:station:TABS:A:1,1995-07-01T10:30:00Z,29.5325,-93.8116,2.0,224.0220378,24.86549416,-99999.0,'11111222,11111222,99999999' 
TABS,ioos:station:TABS:A:1,1995-07-01T11:00:00Z,29.5325,-93.8116,2.0,221.853808,19.1985963,-99999.0,'11111222,11111222,99999999' 
TABS,ioos:station:TABS:A:1,1995-07-01T11:30:00Z,29.5325,-93.8116,2.0,241.3154922,14.27140147,-99999.0,'11111222,11111222,99999999' 
TABS,ioos:station:TABS:A:1,1995-07-01T12:00:00Z,29.5325,-93.8116,2.0,214.753999,17.77011255,-99999.0,'11111222,11111222,99999999' 
TABS,ioos:station:TABS:A:1,1995-07-01T12:30:00Z,29.5325,-93.8116,2.0,204.4756479,47.47644679,-99999.0,'11111222,11111222,99999999' 
TABS,ioos:station:TABS:A:1,1995-07-01T13:00:00Z,29.5325,-93.8116,2.0,203.3846601,48.04659093,-99999.0,'11111222,11111222,99999999' 
TABS,ioos:station:TABS:A:1,1995-07-01T13:30:00Z,29.5325,-93.8116,2.0,223.46819,39.4211428,-99999.0,'11111222,11111222,99999999' 
TABS,ioos:station:TABS:A:1,1995-07-01T14:00:00Z,29.5325,-93.8116,2.0,226.1962511,30.13639162,-99999.0,'11111222,11111222,99999999' 
TABS,ioos:station:TABS:A:1,1995-07-01T14:30:00Z,29.5325,-93.8116,2.0,229.224661,31.48109274,-99999.0,'11111222,11111222,99999999' 
TABS,ioos:station:TABS:A:1,1995-07-01T15:00:00Z,29.5325,-93.8116,2.0,230.0165354,26.44102305,-99999.0,'11111222,11111222,99999999' 
TABS,ioos:station:TABS:A:1,1995-07-01T15:30:00Z,29.5325,-93.8116,2.0,241.5653186,24.40401606,-99999.0,'11111222,11111222,99999999' 
TABS,ioos:station:TABS:A:1,1995-07-01T16:00:00Z,29.5325,-93.8116,2.0,218.556768,24.38657212,-99999.0,'11111222,11111222,99999999' 
TABS,ioos:station:TABS:A:1,1995-07-01T16:30:00Z,29.5325,-93.8116,2.0,230.6622433,23.50579503,-99999.0,'11111222,11111222,99999999' 
TABS,ioos:station:TABS:A:1,1995-07-01T17:00:00Z,29.5325,-93.8116,2.0,223.3385948,21.71023031,-99999.0,'11111222,11111222,99999999' 
TABS,ioos:station:TABS:A:1,1995-07-01T17:30:00Z,29.5325,-93.8116,2.0,216.6138579,25.98825889,-99999.0,'11111222,11111222,99999999' 
TABS,ioos:station:TABS:A:1,1995-07-01T18:00:00Z,29.5325,-93.8116,2.0,220.9485121,26.82394453,-99999.0,'11111222,11111222,99999999' 
TABS,ioos:station:TABS:A:1,1995-07-01T18:30:00Z,29.5325,-93.8116,2.0,222.9097346,28.89038767,-99999.0,'11111222,11111222,99999999' 
TABS,ioos:station:TABS:A:1,1995-07-01T19:00:00Z,29.5325,-93.8116,2.0,232.085473,35.88396021,-99999.0,'11111222,11111222,99999999' 
TABS,ioos:station:TABS:A:1,1995-07-01T19:30:00Z,29.5325,-93.8116,2.0,218.4217357,34.99884141,-99999.0,'11111222,11111222,99999999' 
TABS,ioos:station:TABS:A:1,1995-07-01T20:00:00Z,29.5325,-93.8116,2.0,214.4801967,35.787115,-99999.0,'11111222,11111222,99999999' 
TABS,ioos:station:TABS:A:1,1995-07-01T20:30:00Z,29.5325,-93.8116,2.0,207.9876403,37.46121728,-99999.0,'11111222,11111222,99999999' 
TABS,ioos:station:TABS:A:1,1995-07-01T21:00:00Z,29.5325,-93.8116,2.0,195.5677422,37.7447546,-99999.0,'11111222,11111222,99999999' 
TABS,ioos:station:TABS:A:1,1995-07-01T21:30:00Z,29.5325,-93.8116,2.0,187.7256654,35.48208703,-99999.0,'11111222,11111222,99999999' 
TABS,ioos:station:TABS:A:1,1995-07-01T22:00:00Z,29.5325,-93.8116,2.0,187.6953635,33.38064259,-99999.0,'11111222,11111222,99999999' 
TABS,ioos:station:TABS:A:1,1995-07-01T22:30:00Z,29.5325,-93.8116,2.0,190.6214927,33.96191985,-99999.0,'11111222,11111222,99999999' 
TABS,ioos:station:TABS:A:1,1995-07-01T23:00:00Z,29.5325,-93.8116,2.0,168.1111593,28.93056688,-99999.0,'11111222,11111222,99999999' 
TABS,ioos:station:TABS:A:1,1995-07-01T23:30:00Z,29.5325,-93.8116,2.0,167.6514479,32.03102558,-99999.0,'11111222,11111222,99999999' 
TABS,ioos:station:TABS:A:1,1995-07-02T00:00:00Z,29.5325,-93.8116,2.0,167.7367795,28.06025659,-99999.0,'11111222,11111222,99999999' 
TABS,ioos:station:TABS:A:1,1995-07-02T00:30:00Z,29.5325,-93.8116,2.0,185.3512594,28.73524839,-99999.0,'11111222,11111222,99999999' 
TABS,ioos:station:TABS:A:1,1995-07-02T01:00:00Z,29.5325,-93.8116,2.0,205.2327697,28.66519318,-99999.0,'11111222,11111222,99999999' 
TABS,ioos:station:TABS:A:1,1995-07-02T01:30:00Z,29.5325,-93.8116,2.0,199.3649893,23.37231268,-99999.0,'11111222,11111222,99999999' 
TABS,ioos:station:TABS:A:1,1995-07-02T02:00:00Z,29.5325,-93.8116,2.0,196.0870965,18.29648327,-99999.0,'11111222,11111222,99999999' 
TABS,ioos:station:TABS:A:1,1995-07-02T02:30:00Z,29.5325,-93.8116,2.0,209.0573491,18.4068384,-99999.0,'11111222,11111222,99999999' 
TABS,ioos:station:TABS:A:1,1995-07-02T03:00:00Z,29.5325,-93.8116,2.0,219.4642261,13.1214519,-99999.0,'11111222,11111222,99999999' 
TABS,ioos:station:TABS:A:1,1995-07-02T03:30:00Z,29.5325,-93.8116,2.0,237.176764,10.99541723,-99999.0,'11111222,11111222,99999999' 
TABS,ioos:station:TABS:A:1,1995-07-02T04:00:00Z,29.5325,-93.8116,2.0,231.3398612,9.540655114,-99999.0,'11133222,11111222,99999999' 
TABS,ioos:station:TABS:A:1,1995-07-02T04:30:00Z,29.5325,-93.8116,2.0,242.549432,8.39520101,-99999.0,'11133222,11111222,99999999' 
TABS,ioos:station:TABS:A:1,1995-07-02T05:00:00Z,29.5325,-93.8116,2.0,230.5628801,6.564586811,-99999.0,'11133222,11111222,99999999' 
TABS,ioos:station:TABS:A:1,1995-07-02T05:30:00Z,29.5325,-93.8116,2.0,245.5688438,7.205137056,-99999.0,'11133222,11111222,99999999' 
TABS,ioos:station:TABS:A:1,1995-07-02T06:00:00Z,29.5325,-93.8116,2.0,237.0028293,7.106229661,-99999.0,'11133222,11111222,99999999' 
TABS,ioos:station:TABS:A:1,1995-07-02T06:30:00Z,29.5325,-93.8116,2.0,223.5207793,8.219318707,-99999.0,'11133222,11111222,99999999' 
TABS,ioos:station:TABS:A:1,1995-07-02T07:00:00Z,29.5325,-93.8116,2.0,196.8097227,13.38181602,-99999.0,'11111222,11111222,99999999' 
TABS,ioos:station:TABS:A:1,1995-07-02T07:30:00Z,29.5325,-93.8116,2.0,192.6169251,23.21050193,-99999.0,'11111222,11111222,99999999' 
TABS,ioos:station:TABS:A:1,1995-07-02T08:00:00Z,29.5325,-93.8116,2.0,204.1199693,31.34690096,-99999.0,'11111222,11111222,99999999' 
TABS,ioos:station:TABS:A:1,1995-07-02T08:30:00Z,29.5325,-93.8116,2.0,193.3314342,34.91079203,-99999.0,'11111222,11111222,99999999' 
TABS,ioos:station:TABS:A:1,1995-07-02T09:00:00Z,29.5325,-93.8116,2.0,196.859227,30.82488605,-99999.0,'11111222,11111222,99999999' 
TABS,ioos:station:TABS:A:1,1995-07-02T09:30:00Z,29.5325,-93.8116,2.0,197.0075258,37.70920975,-99999.0,'11111222,11111222,99999999' 
TABS,ioos:station:TABS:A:1,1995-07-02T10:00:00Z,29.5325,-93.8116,2.0,204.1495578,37.88581397,-99999.0,'11111222,11111222,99999999' 
TABS,ioos:station:TABS:A:1,1995-07-02T10:30:00Z,29.5325,-93.8116,2.0,207.873205,35.05727029,-99999.0,'11111222,11111222,99999999' 
TABS,ioos:station:TABS:A:1,1995-07-02T11:00:00Z,29.5325,-93.8116,2.0,201.7252486,37.84845704,-99999.0,'11111222,11111222,99999999' 
TABS,ioos:station:TABS:A:1,1995-07-02T11:30:00Z,29.5325,-93.8116,2.0,197.9849586,36.66141432,-99999.0,'11111222,11111222,99999999' 
TABS,ioos:station:TABS:A:1,1995-07-02T12:00:00Z,29.5325,-93.8116,2.0,199.0790427,33.74363644,-99999.0,'11111222,11111222,99999999' 
TABS,ioos:station:TABS:A:1,1995-07-02T12:30:00Z,29.5325,-93.8116,2.0,202.3836639,32.87720183,-99999.0,'11111222,11111222,99999999' 
TABS,ioos:station:TABS:A:1,1995-07-02T13:00:00Z,29.5325,-93.8116,2.0,194.5775735,30.79127311,-99999.0,'11111222,11111222,99999999' 
TABS,ioos:station:TABS:A:1,1995-07-02T13:30:00Z,29.5325,-93.8116,2.0,221.0395669,33.58290339,-99999.0,'11111222,11111222,99999999' 
TABS,ioos:station:TABS:A:1,1995-07-02T14:00:00Z,29.5325,-93.8116,2.0,215.7924421,31.59758377,-99999.0,'11111222,11111222,99999999' 
TABS,ioos:station:TABS:A:1,1995-07-02T14:30:00Z,29.5325,-93.8116,2.0,226.2483997,28.87802798,-99999.0,'11111222,11111222,99999999' 
TABS,ioos:station:TABS:A:1,1995-07-02T15:00:00Z,29.5325,-93.8116,2.0,223.1246506,25.71710131,-99999.0,'11111222,11111222,99999999' 
TABS,ioos:station:TABS:A:1,1995-07-02T15:30:00Z,29.5325,-93.8116,2.0,228.0701371,23.63007617,-99999.0,'11111222,11111222,99999999' 
TABS,ioos:station:TABS:A:1,1995-07-02T16:00:00Z,29.5325,-93.8116,2.0,224.9996843,22.75469622,-99999.0,'11111222,11111222,99999999' 
TABS,ioos:station:TABS:A:1,1995-07-02T16:30:00Z,29.5325,-93.8116,2.0,215.6191443,21.99523812,-99999.0,'11111222,11111222,99999999' 
TABS,ioos:station:TABS:A:1,1995-07-02T17:00:00Z,29.5325,-93.8116,2.0,227.834541,21.30291295,-99999.0,'11111222,11111222,99999999' 
TABS,ioos:station:TABS:A:1,1995-07-02T17:30:00Z,29.5325,-93.8116,2.0,228.5331388,17.09498464,-99999.0,'11111222,11111222,99999999' 
TABS,ioos:station:TABS:A:1,1995-07-02T18:00:00Z,29.5325,-93.8116,2.0,220.7296607,16.90434855,-99999.0,'11111222,11111222,99999999' 
TABS,ioos:station:TABS:A:1,1995-07-02T18:30:00Z,29.5325,-93.8116,2.0,205.3372026,12.52485529,-99999.0,'11111222,11111222,99999999' 
TABS,ioos:station:TABS:A:1,1995-07-02T19:00:00Z,29.5325,-93.8116,2.0,194.7483006,11.70567384,-99999.0,'11111222,11111222,99999999' 
TABS,ioos:station:TABS:A:1,1995-07-02T19:30:00Z,29.5325,-93.8116,2.0,169.8703861,8.47205406,-99999.0,'11133222,11111222,99999999' 
TABS,ioos:station:TABS:A:1,1995-07-02T20:00:00Z,29.5325,-93.8116,2.0,139.8771619,7.401925425,-99999.0,'11133222,11111222,99999999' 
TABS,ioos:station:TABS:A:1,1995-07-02T20:30:00Z,29.5325,-93.8116,2.0,133.0112616,6.113084328,-99999.0,'11133222,11111222,99999999' 
TABS,ioos:station:TABS:A:1,1995-07-02T21:00:00Z,29.5325,-93.8116,2.0,156.7680961,4.53795108,-99999.0,'11133222,11111222,99999999' 
TABS,ioos:station:TABS:A:1,1995-07-02T21:30:00Z,29.5325,-93.8116,2.0,113.6608209,5.207782638,-99999.0,'11133222,11111222,99999999' 
TABS,ioos:station:TABS:A:1,1995-07-02T22:00:00Z,29.5325,-93.8116,2.0,90.0,6.56,-99999.0,'11133222,11111222,99999999' 
TABS,ioos:station:TABS:A:1,1995-07-02T22:30:00Z,29.5325,-93.8116,2.0,80.92474241,7.544441663,-99999.0,'11133222,11111222,99999999' 
TABS,ioos:station:TABS:A:1,1995-07-02T23:00:00Z,29.5325,-93.8116,2.0,155.5690543,7.205137056,-99999.0,'11133222,11111222,99999999' 
TABS,ioos:station:TABS:A:1,1995-07-02T23:30:00Z,29.5325,-93.8116,2.0,179.9997895,6.26,-99999.0,'11133222,11111222,99999999' 
TABS,ioos:station:TABS:A:1,1995-07-03T00:00:00Z,29.5325,-93.8116,2.0,205.0587124,4.93447059,-99999.0,'11133222,11111222,99999999' 
TABS,ioos:station:TABS:A:1,1995-07-03T00:30:00Z,29.5325,-93.8116,2.0,217.8820843,6.7910603,-99999.0,'11133222,11111222,99999999' 
TABS,ioos:station:TABS:A:1,1995-07-03T01:00:00Z,29.5325,-93.8116,2.0,232.1172843,6.7910603,-99999.0,'11133222,11111222,99999999' 
TABS,ioos:station:TABS:A:1,1995-07-03T01:30:00Z,29.5325,-93.8116,2.0,221.9656518,8.015684625,-99999.0,'11133222,11111222,99999999' 
TABS,ioos:station:TABS:A:1,1995-07-03T02:00:00Z,29.5325,-93.8116,2.0,233.8581641,9.5967755,-99999.0,'11133222,11111222,99999999' 
TABS,ioos:station:TABS:A:1,1995-07-03T02:30:00Z,29.5325,-93.8116,2.0,223.868996,10.75011628,-99999.0,'11111222,11111222,99999999' 
TABS,ioos:station:TABS:A:1,1995-07-03T03:00:00Z,29.5325,-93.8116,2.0,216.6138579,12.99412944,-99999.0,'11111222,11111222,99999999' 
TABS,ioos:station:TABS:A:1,1995-07-03T03:30:00Z,29.5325,-93.8116,2.0,213.349714,13.55156449,-99999.0,'11111222,11111222,99999999' 
TABS,ioos:station:TABS:A:1,1995-07-03T04:00:00Z,29.5325,-93.8116,2.0,216.427741,15.56046272,-99999.0,'11111222,11111222,99999999' 
TABS,ioos:station:TABS:A:1,1995-07-03T04:30:00Z,29.5325,-93.8116,2.0,222.1655799,12.87094402,-99999.0,'11111222,11111222,99999999' 
TABS,ioos:station:TABS:A:1,1995-07-03T05:00:00Z,29.5325,-93.8116,2.0,229.6407184,15.64299524,-99999.0,'11111222,11111222,99999999' 
TABS,ioos:station:TABS:A:1,1995-07-03T05:30:00Z,29.5325,-93.8116,2.0,229.9243455,17.13280479,-99999.0,'11111222,11111222,99999999' 
TABS,ioos:station:TABS:A:1,1995-07-03T06:00:00Z,29.5325,-93.8116,2.0,228.6562331,19.84646316,-99999.0,'11111222,11111222,99999999' 
TABS,ioos:station:TABS:A:1,1995-07-03T06:30:00Z,29.5325,-93.8116,2.0,233.1415983,19.37200041,-99999.0,'11111222,11111222,99999999' 
TABS,ioos:station:TABS:A:1,1995-07-03T07:00:00Z,29.5325,-93.8116,2.0,215.9308561,25.391408,-99999.0,'11111222,11111222,99999999' 
TABS,ioos:station:TABS:A:1,1995-07-03T07:30:00Z,29.5325,-93.8116,2.0,240.0481144,20.28973386,-99999.0,'11111222,11111222,99999999' 
TABS,ioos:station:TABS:A:1,1995-07-03T08:00:00Z,29.5325,-93.8116,2.0,240.3410992,24.69534369,-99999.0,'11111222,11111222,99999999' 
TABS,ioos:station:TABS:A:1,1995-07-03T08:30:00Z,29.5325,-93.8116,2.0,233.9200635,25.81045525,-99999.0,'11111222,11111222,99999999' 
TABS,ioos:station:TABS:A:1,1995-07-03T09:00:00Z,29.5325,-93.8116,2.0,233.2686554,26.40207757,-99999.0,'11111222,11111222,99999999' 
TABS,ioos:station:TABS:A:1,1995-07-03T09:30:00Z,29.5325,-93.8116,2.0,243.1027436,22.3923603,-99999.0,'11111222,11111222,99999999' 
TABS,ioos:station:TABS:A:1,1995-07-03T10:00:00Z,29.5325,-93.8116,2.0,253.3047838,24.8891161,-99999.0,'11111222,11111222,99999999' 
TABS,ioos:station:TABS:A:1,1995-07-03T10:30:00Z,29.5325,-93.8116,2.0,257.0550297,26.60613651,-99999.0,'11111222,11111222,99999999' 
TABS,ioos:station:TABS:A:1,1995-07-03T11:00:00Z,29.5325,-93.8116,2.0,265.420574,22.42156551,-99999.0,'11111222,11111222,99999999' 
TABS,ioos:station:TABS:A:1,1995-07-03T11:30:00Z,29.5325,-93.8116,2.0,264.4535565,30.83433962,-99999.0,'11111222,11111222,99999999' 
TABS,ioos:station:TABS:A:1,1995-07-03T12:00:00Z,29.5325,-93.8116,2.0,273.2891496,25.97277421,-99999.0,'11111222,11111222,99999999' 
TABS,ioos:station:TABS:A:1,1995-07-03T12:30:00Z,29.5325,-93.8116,2.0,301.7608776,22.07571743,-99999.0,'11111222,11111222,99999999' 
TABS,ioos:station:TABS:A:1,1995-07-03T13:00:00Z,29.5325,-93.8116,2.0,292.0700783,23.79340455,-99999.0,'11111222,11111222,99999999' 
TABS,ioos:station:TABS:A:1,1995-07-03T13:30:00Z,29.5325,-93.8116,2.0,279.3363715,23.85599505,-99999.0,'11111222,11111222,99999999' 
TABS,ioos:station:TABS:A:1,1995-07-03T14:00:00Z,29.5325,-93.8116,2.0,276.1584973,30.57643537,-99999.0,'11111222,11111222,99999999' 
TABS,ioos:station:TABS:A:1,1995-07-03T14:30:00Z,29.5325,-93.8116,2.0,267.9205098,32.80159295,-99999.0,'11111222,11111222,99999999' 
TABS,ioos:station:TABS:A:1,1995-07-03T15:00:00Z,29.5325,-93.8116,2.0,265.6498965,31.380384,-99999.0,'11111222,11111222,99999999' 
TABS,ioos:station:TABS:A:1,1995-07-03T15:30:00Z,29.5325,-93.8116,2.0,262.6213806,25.54148195,-99999.0,'11111222,11111222,99999999' 
TABS,ioos:station:TABS:A:1,1995-07-03T16:00:00Z,29.5325,-93.8116,2.0,256.7181544,27.24881649,-99999.0,'11111222,11111222,99999999' 
TABS,ioos:station:TABS:A:1,1995-07-03T16:30:00Z,29.5325,-93.8116,2.0,253.1753505,26.77609755,-99999.0,'11111222,11111222,99999999' 
TABS,ioos:station:TABS:A:1,1995-07-03T17:00:00Z,29.5325,-93.8116,2.0,249.281441,23.57452226,-99999.0,'11111222,11111222,99999999' 
TABS,ioos:station:TABS:A:1,1995-07-03T17:30:00Z,29.5325,-93.8116,2.0,235.0113277,25.46172814,-99999.0,'11111222,11111222,99999999' 
TABS,ioos:station:TABS:A:1,1995-07-03T18:00:00Z,29.5325,-93.8116,2.0,228.6415518,26.60558776,-99999.0,'11111222,11111222,99999999' 
TABS,ioos:station:TABS:A:1,1995-07-03T18:30:00Z,29.5325,-93.8116,2.0,217.9213212,29.0929012,-99999.0,'11111222,11111222,99999999' 
TABS,ioos:station:TABS:A:1,1995-07-03T19:00:00Z,29.5325,-93.8116,2.0,214.6198037,30.41544509,-99999.0,'11111222,11111222,99999999' 
TABS,ioos:station:TABS:A:1,1995-07-03T19:30:00Z,29.5325,-93.8116,2.0,223.7323513,28.45386617,-99999.0,'11111222,11111222,99999999' 
TABS,ioos:station:TABS:A:1,1995-07-03T20:00:00Z,29.5325,-93.8116,2.0,217.3402159,28.48896102,-99999.0,'11111222,11111222,99999999' 
TABS,ioos:station:TABS:A:1,1995-07-03T20:30:00Z,29.5325,-93.8116,2.0,226.3203029,27.61278327,-99999.0,'11111222,11111222,99999999' 
TABS,ioos:station:TABS:A:1,1995-07-03T21:00:00Z,29.5325,-93.8116,2.0,225.3842131,30.55477213,-99999.0,'11111222,11111222,99999999' 
TABS,ioos:station:TABS:A:1,1995-07-03T21:30:00Z,29.5325,-93.8116,2.0,222.9274288,35.00346411,-99999.0,'11111222,11111222,99999999' 
TABS,ioos:station:TABS:A:1,1995-07-03T22:00:00Z,29.5325,-93.8116,2.0,223.8539242,31.82616848,-99999.0,'11111222,11111222,99999999' 
TABS,ioos:station:TABS:A:1,1995-07-03T22:30:00Z,29.5325,-93.8116,2.0,228.9104343,34.00616709,-99999.0,'11111222,11111222,99999999' 
TABS,ioos:station:TABS:A:1,1995-07-03T23:00:00Z,29.5325,-93.8116,2.0,232.3628379,31.22879761,-99999.0,'11111222,11111222,99999999' 
TABS,ioos:station:TABS:A:1,1995-07-03T23:30:00Z,29.5325,-93.8116,2.0,227.7288887,26.58201083,-99999.0,'11111222,11111222,99999999' 
TABS,ioos:station:TABS:A:1,1995-07-04T00:00:00Z,29.5325,-93.8116,2.0,213.1884542,28.84551438,-99999.0,'11111222,11111222,99999999' 
TABS,ioos:station:TABS:A:1,1995-07-04T00:30:00Z,29.5325,-93.8116,2.0,219.3709037,30.06264293,-99999.0,'11111222,11111222,99999999' 
TABS,ioos:station:TABS:A:1,1995-07-04T01:00:00Z,29.5325,-93.8116,2.0,218.6595074,28.62196534,-99999.0,'11111222,11111222,99999999' 
TABS,ioos:station:TABS:A:1,1995-07-04T01:30:00Z,29.5325,-93.8116,2.0,225.9773308,24.86549416,-99999.0,'11111222,11111222,99999999' 
TABS,ioos:station:TABS:A:1,1995-07-04T02:00:00Z,29.5325,-93.8116,2.0,231.8118336,23.13011889,-99999.0,'11111222,11111222,99999999' 
TABS,ioos:station:TABS:A:1,1995-07-04T02:30:00Z,29.5325,-93.8116,2.0,236.9256488,23.47349569,-99999.0,'11111222,11111222,99999999' 
TABS,ioos:station:TABS:A:1,1995-07-04T03:00:00Z,29.5325,-93.8116,2.0,233.1345751,23.83600008,-99999.0,'11111222,11111222,99999999' 
TABS,ioos:station:TABS:A:1,1995-07-04T03:30:00Z,29.5325,-93.8116,2.0,231.6667392,25.45829924,-99999.0,'11111222,11111222,99999999' 
TABS,ioos:station:TABS:A:1,1995-07-04T04:00:00Z,29.5325,-93.8116,2.0,226.2861984,28.02970745,-99999.0,'11111222,11111222,99999999' 
TABS,ioos:station:TABS:A:1,1995-07-04T04:30:00Z,29.5325,-93.8116,2.0,230.9616152,28.3883233,-99999.0,'11111222,11111222,99999999' 
TABS,ioos:station:TABS:A:1,1995-07-04T05:00:00Z,29.5325,-93.8116,2.0,224.1757385,29.50354555,-99999.0,'11111222,11111222,99999999' 
TABS,ioos:station:TABS:A:1,1995-07-04T05:30:00Z,29.5325,-93.8116,2.0,219.2104984,29.2323947,-99999.0,'11111222,11111222,99999999' 
TABS,ioos:station:TABS:A:1,1995-07-04T06:00:00Z,29.5325,-93.8116,2.0,227.7688268,30.58980386,-99999.0,'11111222,11111222,99999999' 
TABS,ioos:station:TABS:A:1,1995-07-04T06:30:00Z,29.5325,-93.8116,2.0,227.8077577,30.16604217,-99999.0,'11111222,11111222,99999999' 
TABS,ioos:station:TABS:A:1,1995-07-04T07:00:00Z,29.5325,-93.8116,2.0,225.4146624,29.28913109,-99999.0,'11111222,11111222,99999999' 
TABS,ioos:station:TABS:A:1,1995-07-04T07:30:00Z,29.5325,-93.8116,2.0,223.9315238,22.7586511,-99999.0,'11111222,11111222,99999999' 
TABS,ioos:station:TABS:A:1,1995-07-04T08:00:00Z,29.5325,-93.8116,2.0,224.1258988,27.82081595,-99999.0,'11111222,11111222,99999999' 
TABS,ioos:station:TABS:A:1,1995-07-04T08:30:00Z,29.5325,-93.8116,2.0,215.1930945,28.43817329,-99999.0,'11111222,11111222,99999999' 
TABS,ioos:station:TABS:A:1,1995-07-04T09:00:00Z,29.5325,-93.8116,2.0,220.5320691,27.05124766,-99999.0,'11111222,11111222,99999999' 
TABS,ioos:station:TABS:A:1,1995-07-04T09:30:00Z,29.5325,-93.8116,2.0,223.9627196,34.7741355,-99999.0,'11111222,11111222,99999999' 
TABS,ioos:station:TABS:A:1,1995-07-04T10:00:00Z,29.5325,-93.8116,2.0,231.9443127,40.11858671,-99999.0,'11111222,11111222,99999999' 
TABS,ioos:station:TABS:A:1,1995-07-04T10:30:00Z,29.5325,-93.8116,2.0,232.9589352,39.57617591,-99999.0,'11111222,11111222,99999999' 
TABS,ioos:station:TABS:A:1,1995-07-04T11:00:00Z,29.5325,-93.8116,2.0,229.1440306,43.73578055,-99999.0,'11111222,11111222,99999999' 
TABS,ioos:station:TABS:A:1,1995-07-04T11:30:00Z,29.5325,-93.8116,2.0,240.6907655,38.95671701,-99999.0,'11111222,11111222,99999999' 
TABS,ioos:station:TABS:A:1,1995-07-04T12:00:00Z,29.5325,-93.8116,2.0,224.9996843,35.82202953,-99999.0,'11111222,11111222,99999999' 
TABS,ioos:station:TABS:A:1,1995-07-04T12:30:00Z,29.5325,-93.8116,2.0,239.3858888,41.55145244,-99999.0,'11111222,11111222,99999999' 
TABS,ioos:station:TABS:A:1,1995-07-04T13:00:00Z,29.5325,-93.8116,2.0,237.9578425,51.68338708,-99999.0,'11111222,11111222,99999999' 
TABS,ioos:station:TABS:A:1,1995-07-04T13:30:00Z,29.5325,-93.8116,2.0,243.43459,53.97868098,-99999.0,'11111222,11111222,99999999' 
TABS,ioos:station:TABS:A:1,1995-07-04T14:00:00Z,29.5325,-93.8116,2.0,218.357972,52.82182125,-99999.0,'11111222,11111222,99999999' 
TABS,ioos:station:TABS:A:1,1995-07-04T14:30:00Z,29.5325,-93.8116,2.0,263.2925704,35.70434847,-99999.0,'11111222,11111222,99999999' 
TABS,ioos:station:TABS:A:1,1995-07-04T15:00:00Z,29.5325,-93.8116,2.0,257.6297617,12.51042765,-99999.0,'11111222,11111222,99999999' 
TABS,ioos:station:TABS:A:1,1995-07-04T15:30:00Z,29.5325,-93.8116,2.0,225.5865849,20.01924324,-99999.0,'11111222,11111222,99999999' 
TABS,ioos:station:TABS:A:1,1995-07-04T16:00:00Z,29.5325,-93.8116,2.0,238.2187383,24.89212124,-99999.0,'11111222,11111222,99999999' 
TABS,ioos:station:TABS:A:1,1995-07-04T16:30:00Z,29.5325,-93.8116,2.0,222.0468787,36.92464353,-99999.0,'11111222,11111222,99999999' 
TABS,ioos:station:TABS:A:1,1995-07-04T17:00:00Z,29.5325,-93.8116,2.0,213.0190743,42.64827312,-99999.0,'11111222,11111222,99999999' 
TABS,ioos:station:TABS:A:1,1995-07-04T17:30:00Z,29.5325,-93.8116,2.0,224.7098269,41.93196871,-99999.0,'11111222,11111222,99999999' 
TABS,ioos:station:TABS:A:1,1995-07-04T18:00:00Z,29.5325,-93.8116,2.0,233.5398316,34.09287316,-99999.0,'11111222,11111222,99999999' 